SCP
-0 -0 0 0 0 0 0 0 0 0 0 0 0 0 0 0 0 0 0 0 0 0 0 0 0 0 0 0 0 0 0 0 0 0 0 0 0 0 -0 0 -0 0 0 0 0 0 0
-0 0 -0 0 0 0 0 0 0 0 0 0 0 0 0 0 0 0 0 0 0 0 0 0 0 0 0 0 0 0 0 0 0 0 0 0 0 -0 0 0 0 0 0 0 0 0 0
-0 -0 -0 -0 0 0 0 0 0 0 0 0 0 0 0 0 0 0 0 0 0 0 0 0 0 0 0 -0 0 0 0 0 0 0 0 0 0 0 0 0 0 0 0 0 0 0 0
0 -0 -0 -0 -0 0 0 0 0 0 0 0 0 0 0 0 0 0 0 0 0 0 0 0 0 0 0 0 0 0 0 0 0 0 0 0 0 0 0 0 0 0 0 0 -0 -0 0
0 0 -0 -0 -0 -0 0 0 0 0 0 0 0 0 0 0 0 0 0 0 0 0 0 0 0 0 0 0 0 0 0 0 0 0 0 0 0 0 0 0 0 0 0 0 -0 0 0
0 0 0 0 -0 -0 -0 0 0 0 0 0 0 0 0 0 0 0 0 0 0 0 0 0 0 0 0 0 0 0 0 0 0 0 0 0 0 0 0 0 0 0 0 0 -0 0 0
0 0 0 0 -0 -0 -0 -0 0 0 0 0 0 0 0 0 0 0 0 0 0 0 0 0 0 0 0 0 0 0 0 0 0 0 0 0 0 0 0 0 -0 -0 0 0 -0 0 0
0 0 0 0 0 -0 -0 -0 -0 0 0 0 0 0 0 0 0 0 0 0 0 0 0 0 0 0 0 0 0 0 0 0 0 0 0 0 0 0 0 0 0 0 0 0 0 0 0
0 0 0 0 0 0 0 -0 -0 -0 0 0 0 0 0 0 0 0 0 0 0 0 0 0 0 0 0 0 0 0 0 0 0 0 0 0 0 0 0 0 0 0 0 0 0 0 0
0 0 0 0 0 0 0 -0 -0 -0 -0 0 0 0 0 0 0 0 0 0 0 0 0 0 0 0 0 0 0 0 0 0 0 0 0 0 0 -0 0 0 0 0 0 0 0 0 0
0 0 0 0 0 0 0 0 0 -0 -0 -0 0 0 0 0 0 0 0 0 0 0 0 0 0 0 0 0 0 0 0 0 0 0 0 0 0 0 0 0 0 0 0 0 0 0 0
0 0 0 0 0 0 0 0 0 -0 -0 -0 -0 0 0 0 0 0 0 0 1 0 0 0 0 0 0 0 0 0 0 0 0 0 0 0 0 0 0 0 0 0 0 0 0 0 0
0 0 0 0 0 0 0 0 0 0 0 0 0 0 0 0 0 0 0 0 0 0 0 0 0 0 0 0 0 0 0 0 0 0 0 0 0 0 0 0 0 0 0 0 0 0 0
0 0 0 0 0 0 0 0 0 0 0 0 0 0 0 0 0 0 0 0 0 0 0 0 0 0 0 0 0 0 0 0 0 0 0 0 0 0 0 0 0 0 0 0 0 0 0
0 0 0 0 0 0 0 0 0 0 0 0 0 0 0 0 0 0 0 0 0 0 0 0 0 0 0 0 0 0 0 0 0 0 0 0 0 0 0 0 0 0 0 0 0 0 0
0 0 0 0 0 0 0 0 0 0 0 0 0 0 0 0 0 0 0 0 0 0 0 -0 0 0 0 0 0 0 0 0 0 0 0 0 0 0 0 0 0 0 0 0 0 0 0
0 0 0 0 0 0 0 0 0 0 0 0 0 0 0 0 0 0 0 0 0 0 0 0 0 0 0 0 0 0 0 0 0 0 -0 -0 0 0 0 0 0 0 0 0 0 0 0
0 0 0 0 0 0 0 0 0 0 0 0 0 0 0 0 0 0 0 0 0 0 0 0 0 0 0 0 0 0 0 0 0 0 0 0 0 0 0 0 0 0 0 0 0 0 0
0 0 0 0 0 0 0 0 0 0 0 1 0 0 0 0 0 0 0 0 0 0 0 0 0 0 0 0 0 0 0 0 0 0 0 0 0 0 0 0 0 0 0 0 0 0 0
0 0 0 0 0 0 0 0 0 0 0 0 0 0 0 0 0 0 0 0 0 0 0 0 0 0 0 0 0 0 0 0 0 0 0 0 0 0 0 0 0 0 0 0 0 0 0
0 0 0 0 0 0 0 0 0 0 0 0 0 0 0 0 0 0 0 0 0 0 0 0 0 0 0 0 0 0 0 0 0 0 0 0 0 0 0 0 0 0 0 0 0 0 0
0 0 0 0 0 0 0 0 0 0 0 1 0 0 0 0 0 0 0 0 0 0 0 0 0 0 0 0 0 0 0 0 0 0 0 0 0 0 0 0 0 0 0 0 0 0 0
0 0 0 0 0 0 0 0 0 0 0 1 0 0 0 0 0 0 0 0 0 0 0 0 0 0 0 0 0 0 0 0 0 0 0 0 0 0 0 0 0 0 0 0 0 0 0
-0 0 0 0 0 0 0 0 0 0 0 0 0 0 0 0 0 0 0 0 0 0 0 0 0 0 0 0 0 0 0 0 0 0 0 0 0 0 0 0 0 0 0 0 0 0 0
0 0 0 0 0 0 0 0 0 0 0 1 0 0 0 0 0 0 0 0 0 0 0 0 0 0 0 0 0 0 0 0 0 0 0 0 0 0 0 0 0 0 0 0 0 0 0
0 0 0 0 0 0 0 0 0 0 0 0 0 0 0 0 0 0 0 0 0 0 0 0 0 0 0 0 0 0 0 0 0 0 0 0 0 0 0 0 0 0 0 0 0 0 0
0 0 0 0 0 0 0 0 0 0 0 0 0 0 0 0 0 0 0 0 0 0 0 0 0 0 0 0 0 0 0 0 0 0 0 0 0 0 0 0 0 0 0 0 0 0 0
-0 0 0 0 0 0 0 0 0 0 0 0 0 0 0 0 0 0 0 0 0 0 0 0 0 0 0 0 0 0 0 0 0 0 0 0 0 0 0 0 0 0 0 0 0 0 0
0 0 0 0 0 0 0 0 0 0 0 0 0 0 0 0 0 0 0 0 0 0 0 0 0 0 0 0 0 0 0 0 0 0 0 0 0 0 0 0 0 0 0 0 0 0 0
Wind_Speed_500mb
67 76 77 60 46 86 88 85 83 80 78 74 71 68 66 61 57 51 46 42 38 34 30 25 23 25 17 16 40 25 19 14 11 9 17 23 31 36 36 37 40 36 33 42 31 42 26
77 76 77 84 64 37 81 88 88 85 80 78 73 70 68 64 59 53 47 43 39 36 31 29 24 21 16 26 12 19 20 20 21 20 21 22 25 33 41 38 34 43 37 32 32 40 32
83 78 80 82 92 63 43 75 87 91 83 80 77 74 70 67 62 56 50 45 41 38 32 28 26 22 24 53 15 22 21 25 23 25 28 27 30 32 24 28 37 37 31 30 34 39 34
91 86 79 79 88 90 78 46 73 82 86 82 79 77 73 69 64 57 51 46 42 38 32 27 24 19 26 21 28 43 29 25 25 22 22 20 23 33 36 37 29 21 28 29 35 42 46
85 91 86 86 74 88 102 95 47 62 82 88 82 79 76 71 65 58 52 46 41 36 31 25 20 16 25 22 46 37 44 44 33 29 26 23 16 28 33 30 28 30 28 36 39 27 14
88 88 90 88 83 81 82 105 85 47 69 89 87 83 77 73 67 60 54 45 36 33 26 18 23 18 43 37 33 38 43 41 40 35 29 33 25 24 29 28 30 31 36 31 29 22 18
94 91 90 91 88 78 81 85 99 85 50 66 87 87 79 76 72 67 61 44 14 15 39 33 26 43 19 37 19 32 36 36 35 29 32 38 26 36 45 41 44 39 39 29 23 20 31
95 96 93 91 89 86 81 78 95 99 85 56 74 86 86 80 79 73 67 42 35 4 15 72 72 53 55 14 28 36 40 40 38 32 35 30 38 45 41 41 44 42 37 37 32 34 27
108 102 94 96 90 87 90 76 73 91 92 85 58 88 90 86 79 77 74 62 11 8 15 43 71 72 62 41 36 46 57 57 39 39 36 40 39 45 42 42 43 40 35 30 31 29 31
116 112 105 95 95 88 84 81 78 74 88 90 56 74 93 84 80 82 73 55 27 4 10 25 43 57 71 51 42 57 63 60 34 39 41 41 43 40 26 40 41 39 28 31 31 27 26
123 119 113 104 96 91 86 79 83 78 76 89 88 76 96 108 86 86 71 48 30 20 12 19 64 30 53 66 26 60 62 62 49 44 33 42 44 42 45 37 34 36 27 27 21 26 23
129 125 118 108 101 96 90 85 87 76 74 85 90 63 97 107 76 95 72 55 40 11 27 14 23 45 42 67 75 23 70 73 54 46 45 44 51 41 42 39 33 24 17 25 19 21 25
135 128 121 113 105 101 95 88 82 77 75 80 91 69 105 115 89 94 95 75 12 18 12 27 21 44 51 49 52 54 34 46 46 41 43 44 49 37 27 28 33 31 20 10 18 17 22
136 129 123 114 106 102 98 93 86 81 78 73 87 67 94 115 93 109 110 31 16 30 54 8 34 46 48 43 52 56 46 45 58 51 26 38 42 52 34 41 34 41 36 12 11 18 13
131 126 121 116 107 103 98 93 87 82 77 74 78 72 111 94 116 124 96 28 34 38 58 32 36 43 49 48 27 54 52 44 49 55 44 37 49 29 52 34 39 35 38 32 29 26 18
116 127 116 115 109 106 99 93 86 82 77 67 77 63 96 93 130 129 40 35 31 40 37 59 44 42 46 54 42 48 41 39 47 60 49 25 28 19 32 30 41 41 26 25 17 13 19
124 129 118 113 107 105 102 93 90 84 75 62 84 33 60 108 116 95 30 31 26 44 52 27 43 38 49 50 48 52 28 25 57 58 51 42 20 25 26 24 28 21 32 25 19 18 6
106 104 107 109 106 104 101 95 92 87 73 67 66 10 66 129 21 24 34 37 51 42 42 22 12 43 47 47 50 44 47 31 58 45 59 39 15 20 41 31 37 39 37 37 19 19 23
85 93 99 102 105 104 99 96 94 92 86 76 26 16 80 127 23 31 23 33 32 36 30 29 29 23 21 10 26 42 44 14 37 32 38 27 13 12 24 26 19 29 33 34 29 7 24
88 96 96 101 105 104 100 97 98 95 91 77 21 5 27 77 51 43 38 39 32 39 27 25 18 2 8 18 12 12 13 8 8 10 19 4 14 23 20 22 23 38 41 38 37 24 23
96 106 108 103 107 104 105 101 102 99 96 76 32 8 14 29 27 43 48 43 54 24 38 47 27 27 23 17 10 23 10 10 2 14 4 2 13 26 36 32 15 20 29 48 48 38 30
96 116 112 106 109 102 111 100 103 101 99 74 24 9 9 32 49 36 48 31 63 44 40 47 33 36 28 14 14 15 14 10 8 7 4 9 3 11 24 34 35 28 40 38 47 45 41
66 109 124 115 109 104 113 104 106 105 107 51 31 45 13 30 38 34 37 56 57 51 39 46 36 21 23 5 25 26 27 23 10 14 7 8 8 6 10 25 20 26 35 39 37 39 34
48 94 121 107 102 114 105 102 106 104 112 62 54 39 12 11 35 44 54 52 45 54 38 30 16 23 30 46 43 36 47 28 14 12 21 14 13 7 1 9 14 8 5 34 38 33 29
60 82 95 103 102 96 97 98 100 104 111 67 59 56 14 3 38 48 55 51 45 46 17 10 9 23 62 23 7 8 5 4 2 10 26 22 9 9 10 15 14 13 11 15 22 32 36
50 62 73 82 91 85 90 90 94 94 102 90 54 50 25 7 23 59 40 38 24 13 7 7 16 69 36 6 5 12 12 12 13 12 23 27 18 8 8 11 19 1 9 24 3 20 19
46 54 62 69 75 77 81 83 86 87 95 98 77 48 25 8 6 45 26 23 25 12 11 10 23 7 11 6 7 7 9 17 20 27 16 12 8 17 14 11 11 7 28 32 13 1 21
40 53 54 58 62 68 70 73 76 78 83 84 71 71 29 11 11 21 26 28 29 27 13 22 15 3 5 8 8 7 7 14 12 23 20 17 16 10 8 12 18 35 34 18 18 28 28
35 41 51 52 55 61 65 69 68 69 78 83 61 74 44 19 14 30 31 37 38 38 42 49 8 14 15 7 5 6 7 10 16 15 27 11 10 12 16 9 4 48 26 27 30 31 22
Wind_Direction_500mb
269 261 253 265 226 231 236 236 236 233 231 230 228 229 230 229 228 228 229 235 241 246 250 254 267 276 281 257 256 259 253 223 180 182 216 223 233 240 249 243 254 267 252 260 280 284 265
267 261 260 257 258 232 230 242 237 235 230 230 228 227 228 228 227 227 228 230 234 240 250 260 265 271 272 254 245 266 240 224 226 235 237 237 239 247 260 261 260 267 270 269 282 268 260
267 266 263 260 256 257 222 233 236 235 233 230 227 227 226 226 225 225 225 228 232 237 240 251 262 268 260 239 232 232 226 224 229 232 240 242 246 258 265 265 265 271 277 280 260 254 259
265 264 262 264 262 261 252 239 227 238 233 232 229 226 225 224 223 223 223 226 230 237 240 247 262 264 253 233 251 230 237 227 219 220 234 256 246 253 258 264 262 258 260 258 257 240 234
261 259 260 260 260 262 258 254 225 222 237 229 230 228 224 222 221 219 219 221 226 236 241 246 265 248 261 257 228 227 222 229 231 232 228 236 242 245 247 246 255 247 249 248 251 216 190
260 257 257 257 257 256 262 256 246 230 226 238 225 228 223 220 217 214 212 213 219 233 239 246 246 268 250 237 233 228 224 223 228 226 221 229 227 236 229 231 233 234 235 227 249 156 222
257 254 254 254 255 254 252 256 251 245 230 228 233 222 223 217 213 208 201 188 183 233 215 208 197 215 303 217 195 199 197 194 195 200 213 210 218 225 227 221 249 263 283 285 255 203 191
257 255 251 251 252 251 247 250 252 250 240 240 229 234 216 214 209 206 203 188 203 334 233 227 238 242 255 272 201 207 190 195 196 205 208 222 222 236 240 241 238 238 250 264 275 282 293
258 254 251 248 247 248 244 242 248 250 246 236 224 238 218 209 205 201 196 192 221 236 254 247 227 230 234 224 224 214 202 210 199 204 214 221 230 223 238 241 242 249 251 253 257 278 287
252 253 251 247 245 244 248 236 240 245 241 235 233 233 233 198 195 194 195 196 215 144 266 245 216 229 225 220 233 229 202 207 229 218 218 239 236 250 230 238 246 243 234 254 260 260 259
249 247 247 247 241 240 241 240 234 238 237 237 229 229 224 195 187 190 185 174 182 137 257 188 211 199 199 197 153 219 216 207 232 224 230 240 241 240 236 235 245 249 255 259 267 280 272
245 243 243 242 240 238 237 236 233 232 233 233 230 232 230 195 189 192 163 170 154 162 235 242 151 181 187 200 218 241 207 226 226 241 242 242 252 236 238 229 240 253 255 258 251 259 253
240 237 238 238 237 236 236 234 234 228 228 231 227 228 224 198 186 171 165 148 123 208 184 212 166 180 194 196 208 214 193 208 211 212 229 239 237 243 232 237 227 219 196 231 220 219 238
235 233 232 232 233 233 232 231 227 229 227 229 225 222 225 195 175 166 158 145 198 212 218 166 162 182 198 192 204 207 203 215 212 215 216 220 229 223 194 221 215 206 208 208 226 234 255
230 228 228 227 228 228 227 225 227 222 225 224 222 217 207 188 174 166 150 178 208 204 201 233 173 195 200 198 187 207 208 220 212 210 215 202 226 232 217 198 227 193 217 227 264 280 281
227 225 226 224 224 225 224 223 222 217 218 215 217 226 205 186 172 161 162 203 216 220 188 212 199 198 195 195 198 196 196 218 213 203 215 238 222 211 179 200 214 240 201 213 229 234 234
222 223 222 221 219 220 220 219 218 213 210 201 211 223 203 180 167 163 189 206 201 218 241 227 213 214 212 194 200 192 205 214 201 192 214 229 225 196 154 200 186 205 236 236 210 217 240
210 216 218 217 216 216 216 214 213 207 200 194 201 205 180 173 165 187 200 194 208 210 236 240 255 235 225 203 194 202 220 198 189 185 207 209 232 216 210 200 218 223 216 225 223 210 220
220 217 214 214 213 210 210 210 208 202 196 185 194 194 177 174 174 193 177 205 208 212 191 226 220 229 271 253 204 215 208 353 193 194 195 182 211 197 193 215 210 232 230 214 231 151 225
221 217 216 213 211 209 206 205 206 200 193 186 175 180 170 193 187 182 181 191 202 224 200 215 223 320 242 239 257 241 122 20 329 127 79 124 207 216 216 210 194 218 231 231 215 227 215
223 219 213 210 208 206 204 202 203 199 191 183 188 227 201 183 179 188 196 177 187 175 216 212 207 203 200 216 224 232 106 122 306 51 51 49 242 237 247 249 220 284 247 226 239 223 219
225 219 212 207 206 204 201 200 200 196 190 187 155 188 232 170 171 176 195 191 190 198 178 215 214 195 199 208 198 184 99 167 147 118 183 50 21 306 269 263 263 251 249 247 227 242 242
214 208 202 202 202 198 198 196 196 194 188 193 179 204 224 169 171 177 190 201 202 191 220 211 212 177 201 170 75 70 83 85 84 139 96 112 148 172 238 237 254 267 237 250 249 224 241
166 183 187 193 193 191 194 194 195 193 192 190 198 182 223 190 181 189 193 200 196 202 197 207 185 198 138 128 96 75 58 62 84 125 161 170 162 163 173 100 221 237 57 227 241 242 245
146 157 169 178 182 187 191 192 194 193 191 184 193 194 207 195 190 196 199 195 204 199 185 140 125 167 147 100 89 91 53 78 118 204 200 185 150 156 182 211 323 246 171 194 211 238 240
162 167 174 180 184 188 190 193 192 194 194 189 178 186 177 151 203 198 194 195 184 154 93 73 130 151 149 105 143 174 178 158 182 167 209 201 187 221 172 194 214 209 221 183 169 252 245
161 167 170 176 182 186 189 190 191 193 195 196 204 194 193 111 52 192 187 182 133 130 106 127 142 116 109 135 164 174 177 178 172 176 172 173 178 193 179 222 258 125 117 123 162 4 162
166 160 164 171 177 183 185 185 189 193 192 191 201 217 196 119 110 163 168 148 144 149 142 151 99 168 138 172 173 168 170 186 174 173 174 168 160 176 185 198 231 152 137 166 114 103 104
131 135 156 162 170 177 181 183 187 186 190 191 190 204 201 150 131 137 156 172 180 167 149 165 107 139 159 142 154 135 180 176 169 180 181 186 177 164 189 198 99 163 147 141 145 138 144
Wind_Speed_850mb
67 76 77 60 46 86 88 85 83 80 78 74 71 68 66 61 57 51 46 42 38 34 30 25 23 25 17 16 40 25 19 14 11 9 17 23 31 36 36 37 40 36 33 42 31 42 26
77 76 77 84 64 37 81 88 88 85 80 78 73 70 68 64 59 53 47 43 39 36 31 29 24 21 16 26 12 19 20 20 21 20 21 22 25 33 41 38 34 43 37 32 32 40 32
83 78 80 82 92 63 43 75 87 91 83 80 77 74 70 67 62 56 50 45 41 38 32 28 26 22 24 53 15 22 21 25 23 25 28 27 30 32 24 28 37 37 31 30 34 39 34
91 86 79 79 88 90 78 46 73 82 86 82 79 77 73 69 64 57 51 46 42 38 32 27 24 19 26 21 28 43 29 25 25 22 22 20 23 33 36 37 29 21 28 29 35 42 46
85 91 86 86 74 88 102 95 47 62 82 88 82 79 76 71 65 58 52 46 41 36 31 25 20 16 25 22 46 37 44 44 33 29 26 23 16 28 33 30 28 30 28 36 39 27 14
88 88 90 88 83 81 82 105 85 47 69 89 87 83 77 73 67 60 54 45 36 33 26 18 23 18 43 37 33 38 43 41 40 35 29 33 25 24 29 28 30 31 36 31 29 22 18
94 91 90 91 88 78 81 85 99 85 50 66 87 87 79 76 72 67 61 44 14 15 39 33 26 43 19 37 19 32 36 36 35 29 32 38 26 36 45 41 44 39 39 29 23 20 31
95 96 93 91 89 86 81 78 95 99 85 56 74 86 86 80 79 73 67 42 35 4 15 72 72 53 55 14 28 36 40 40 38 32 35 30 38 45 41 41 44 42 37 37 32 34 27
108 102 94 96 90 87 90 76 73 91 92 85 58 88 90 86 79 77 74 62 11 8 15 43 71 72 62 41 36 46 57 57 39 39 36 40 39 45 42 42 43 40 35 30 31 29 31
116 112 105 95 95 88 84 81 78 74 88 90 56 74 93 84 80 82 73 55 27 4 10 25 43 57 71 51 42 57 63 60 34 39 41 41 43 40 26 40 41 39 28 31 31 27 26
123 119 113 104 96 91 86 79 83 78 76 89 88 76 96 108 86 86 71 48 30 20 12 19 64 30 53 66 26 60 62 62 49 44 33 42 44 42 45 37 34 36 27 27 21 26 23
129 125 118 108 101 96 90 85 87 76 74 85 90 63 97 107 76 95 72 55 40 11 27 14 23 45 42 67 75 23 70 73 54 46 45 44 51 41 42 39 33 24 17 25 19 21 25
135 128 121 113 105 101 95 88 82 77 75 80 91 69 105 115 89 94 95 75 12 18 12 27 21 44 51 49 52 54 34 46 46 41 43 44 49 37 27 28 33 31 20 10 18 17 22
136 129 123 114 106 102 98 93 86 81 78 73 87 67 94 115 93 109 110 31 16 30 54 8 34 46 48 43 52 56 46 45 58 51 26 38 42 52 34 41 34 41 36 12 11 18 13
131 126 121 116 107 103 98 93 87 82 77 74 78 72 111 94 116 124 96 28 34 38 58 32 36 43 49 48 27 54 52 44 49 55 44 37 49 29 52 34 39 35 38 32 29 26 18
116 127 116 115 109 106 99 93 86 82 77 67 77 63 96 93 130 129 40 35 31 40 37 59 44 42 46 54 42 48 41 39 47 60 49 25 28 19 32 30 41 41 26 25 17 13 19
124 129 118 113 107 105 102 93 90 84 75 62 84 33 60 108 116 95 30 31 26 44 52 27 43 38 49 50 48 52 28 25 57 58 51 42 20 25 26 24 28 21 32 25 19 18 6
106 104 107 109 106 104 101 95 92 87 73 67 66 10 66 129 21 24 34 37 51 42 42 22 12 43 47 47 50 44 47 31 58 45 59 39 15 20 41 31 37 39 37 37 19 19 23
85 93 99 102 105 104 99 96 94 92 86 76 26 16 80 127 23 31 23 33 32 36 30 29 29 23 21 10 26 42 44 14 37 32 38 27 13 12 24 26 19 29 33 34 29 7 24
88 96 96 101 105 104 100 97 98 95 91 77 21 5 27 77 51 43 38 39 32 39 27 25 18 2 8 18 12 12 13 8 8 10 19 4 14 23 20 22 23 38 41 38 37 24 23
96 106 108 103 107 104 105 101 102 99 96 76 32 8 14 29 27 43 48 43 54 24 38 47 27 27 23 17 10 23 10 10 2 14 4 2 13 26 36 32 15 20 29 48 48 38 30
96 116 112 106 109 102 111 100 103 101 99 74 24 9 9 32 49 36 48 31 63 44 40 47 33 36 28 14 14 15 14 10 8 7 4 9 3 11 24 34 35 28 40 38 47 45 41
66 109 124 115 109 104 113 104 106 105 107 51 31 45 13 30 38 34 37 56 57 51 39 46 36 21 23 5 25 26 27 23 10 14 7 8 8 6 10 25 20 26 35 39 37 39 34
48 94 121 107 102 114 105 102 106 104 112 62 54 39 12 11 35 44 54 52 45 54 38 30 16 23 30 46 43 36 47 28 14 12 21 14 13 7 1 9 14 8 5 34 38 33 29
60 82 95 103 102 96 97 98 100 104 111 67 59 56 14 3 38 48 55 51 45 46 17 10 9 23 62 23 7 8 5 4 2 10 26 22 9 9 10 15 14 13 11 15 22 32 36
50 62 73 82 91 85 90 90 94 94 102 90 54 50 25 7 23 59 40 38 24 13 7 7 16 69 36 6 5 12 12 12 13 12 23 27 18 8 8 11 19 1 9 24 3 20 19
46 54 62 69 75 77 81 83 86 87 95 98 77 48 25 8 6 45 26 23 25 12 11 10 23 7 11 6 7 7 9 17 20 27 16 12 8 17 14 11 11 7 28 32 13 1 21
40 53 54 58 62 68 70 73 76 78 83 84 71 71 29 11 11 21 26 28 29 27 13 22 15 3 5 8 8 7 7 14 12 23 20 17 16 10 8 12 18 35 34 18 18 28 28
35 41 51 52 55 61 65 69 68 69 78 83 61 74 44 19 14 30 31 37 38 38 42 49 8 14 15 7 5 6 7 10 16 15 27 11 10 12 16 9 4 48 26 27 30 31 22
Wind_Direction_850mb
269 261 253 265 226 231 236 236 236 233 231 230 228 229 230 229 228 228 229 235 241 246 250 254 267 276 281 257 256 259 253 223 180 182 216 223 233 240 249 243 254 267 252 260 280 284 265
267 261 260 257 258 232 230 242 237 235 230 230 228 227 228 228 227 227 228 230 234 240 250 260 265 271 272 254 245 266 240 224 226 235 237 237 239 247 260 261 260 267 270 269 282 268 260
267 266 263 260 256 257 222 233 236 235 233 230 227 227 226 226 225 225 225 228 232 237 240 251 262 268 260 239 232 232 226 224 229 232 240 242 246 258 265 265 265 271 277 280 260 254 259
265 264 262 264 262 261 252 239 227 238 233 232 229 226 225 224 223 223 223 226 230 237 240 247 262 264 253 233 251 230 237 227 219 220 234 256 246 253 258 264 262 258 260 258 257 240 234
261 259 260 260 260 262 258 254 225 222 237 229 230 228 224 222 221 219 219 221 226 236 241 246 265 248 261 257 228 227 222 229 231 232 228 236 242 245 247 246 255 247 249 248 251 216 190
260 257 257 257 257 256 262 256 246 230 226 238 225 228 223 220 217 214 212 213 219 233 239 246 246 268 250 237 233 228 224 223 228 226 221 229 227 236 229 231 233 234 235 227 249 156 222
257 254 254 254 255 254 252 256 251 245 230 228 233 222 223 217 213 208 201 188 183 233 215 208 197 215 303 217 195 199 197 194 195 200 213 210 218 225 227 221 249 263 283 285 255 203 191
257 255 251 251 252 251 247 250 252 250 240 240 229 234 216 214 209 206 203 188 203 334 233 227 238 242 255 272 201 207 190 195 196 205 208 222 222 236 240 241 238 238 250 264 275 282 293
258 254 251 248 247 248 244 242 248 250 246 236 224 238 218 209 205 201 196 192 221 236 254 247 227 230 234 224 224 214 202 210 199 204 214 221 230 223 238 241 242 249 251 253 257 278 287
252 253 251 247 245 244 248 236 240 245 241 235 233 233 233 198 195 194 195 196 215 144 266 245 216 229 225 220 233 229 202 207 229 218 218 239 236 250 230 238 246 243 234 254 260 260 259
249 247 247 247 241 240 241 240 234 238 237 237 229 229 224 195 187 190 185 174 182 137 257 188 211 199 199 197 153 219 216 207 232 224 230 240 241 240 236 235 245 249 255 259 267 280 272
245 243 243 242 240 238 237 236 233 232 233 233 230 232 230 195 189 192 163 170 154 162 235 242 151 181 187 200 218 241 207 226 226 241 242 242 252 236 238 229 240 253 255 258 251 259 253
240 237 238 238 237 236 236 234 234 228 228 231 227 228 224 198 186 171 165 148 123 208 184 212 166 180 194 196 208 214 193 208 211 212 229 239 237 243 232 237 227 219 196 231 220 219 238
235 233 232 232 233 233 232 231 227 229 227 229 225 222 225 195 175 166 158 145 198 212 218 166 162 182 198 192 204 207 203 215 212 215 216 220 229 223 194 221 215 206 208 208 226 234 255
230 228 228 227 228 228 227 225 227 222 225 224 222 217 207 188 174 166 150 178 208 204 201 233 173 195 200 198 187 207 208 220 212 210 215 202 226 232 217 198 227 193 217 227 264 280 281
227 225 226 224 224 225 224 223 222 217 218 215 217 226 205 186 172 161 162 203 216 220 188 212 199 198 195 195 198 196 196 218 213 203 215 238 222 211 179 200 214 240 201 213 229 234 234
222 223 222 221 219 220 220 219 218 213 210 201 211 223 203 180 167 163 189 206 201 218 241 227 213 214 212 194 200 192 205 214 201 192 214 229 225 196 154 200 186 205 236 236 210 217 240
210 216 218 217 216 216 216 214 213 207 200 194 201 205 180 173 165 187 200 194 208 210 236 240 255 235 225 203 194 202 220 198 189 185 207 209 232 216 210 200 218 223 216 225 223 210 220
220 217 214 214 213 210 210 210 208 202 196 185 194 194 177 174 174 193 177 205 208 212 191 226 220 229 271 253 204 215 208 353 193 194 195 182 211 197 193 215 210 232 230 214 231 151 225
221 217 216 213 211 209 206 205 206 200 193 186 175 180 170 193 187 182 181 191 202 224 200 215 223 320 242 239 257 241 122 20 329 127 79 124 207 216 216 210 194 218 231 231 215 227 215
223 219 213 210 208 206 204 202 203 199 191 183 188 227 201 183 179 188 196 177 187 175 216 212 207 203 200 216 224 232 106 122 306 51 51 49 242 237 247 249 220 284 247 226 239 223 219
225 219 212 207 206 204 201 200 200 196 190 187 155 188 232 170 171 176 195 191 190 198 178 215 214 195 199 208 198 184 99 167 147 118 183 50 21 306 269 263 263 251 249 247 227 242 242
214 208 202 202 202 198 198 196 196 194 188 193 179 204 224 169 171 177 190 201 202 191 220 211 212 177 201 170 75 70 83 85 84 139 96 112 148 172 238 237 254 267 237 250 249 224 241
166 183 187 193 193 191 194 194 195 193 192 190 198 182 223 190 181 189 193 200 196 202 197 207 185 198 138 128 96 75 58 62 84 125 161 170 162 163 173 100 221 237 57 227 241 242 245
146 157 169 178 182 187 191 192 194 193 191 184 193 194 207 195 190 196 199 195 204 199 185 140 125 167 147 100 89 91 53 78 118 204 200 185 150 156 182 211 323 246 171 194 211 238 240
162 167 174 180 184 188 190 193 192 194 194 189 178 186 177 151 203 198 194 195 184 154 93 73 130 151 149 105 143 174 178 158 182 167 209 201 187 221 172 194 214 209 221 183 169 252 245
161 167 170 176 182 186 189 190 191 193 195 196 204 194 193 111 52 192 187 182 133 130 106 127 142 116 109 135 164 174 177 178 172 176 172 173 178 193 179 222 258 125 117 123 162 4 162
166 160 164 171 177 183 185 185 189 193 192 191 201 217 196 119 110 163 168 148 144 149 142 151 99 168 138 172 173 168 170 186 174 173 174 168 160 176 185 198 231 152 137 166 114 103 104
131 135 156 162 170 177 181 183 187 186 190 191 190 204 201 150 131 137 156 172 180 167 149 165 107 139 159 142 154 135 180 176 169 180 181 186 177 164 189 198 99 163 147 141 145 138 144